Main page
Satellite images Climate Cyclones Lightning AirportsFAQ Languages Contact Newsletter About
Weather : Europe Africa North America South America Asia Australia-Oceania Others

5371, Ubon Ratchathani, Ubon Ratchathani Airport

48407

latitude: , longitude: Thailand, elevation: 15-15N m


METAR: VTUU 211700Z 00000KT 9999 SCT023 27/26 Q1007 NOSIG